Regional Weather Roundup
Issued by NWS New Orleans/Baton Rouge, LA

Home | Current Version | Previous Version | Text Only | Print | Product List | Glossary Off
Versions: 1 2 3 4 5 6 7 8 9 10 11 12 13 14 15 16 17 18 19 20 21 22 23 24 25 26 27 28 29 30 31 32 33 34 35 36 37 38 39 40 41 42 43 44 45 46 47 48 49 50

068
ASUS44 KLIX 280910
RWRLIX
NEW ORLEANS REGIONAL WEATHER ROUNDUP
NATIONAL WEATHER SERVICE NEW ORLEANS LA
400 AM CDT THU AUG 28 2014

NOTE: "FAIR" INDICATES FEW OR NO CLOUDS BELOW 12,000 FEET WITH NO
      SIGNIFICANT WEATHER AND/OR OBSTRUCTIONS TO VISIBILITY.
      SKY/WX - SKY CONDITION AND SIGNIFICANT WEATHER.
      TMP - AIR TEMPERATURE.     DP    - DEWPOINT TEMPERATURE.
      RH  - RELATIVE HUMIDITY.   PRES  - PRESSURE.
      HI  - HEAT INDEX.          WCI   - WIND CHILL INDEX.

*  THESE STATIONS ARE NOT NWS OR FAA STATIONS AND ARE NOT UNDER
   NWS QUALITY CONTROL.

LAZ038-040-048-061>063-065>067-069-281000-
SOUTHEAST LOUISIANA

CITY           SKY/WX    TMP DP  RH WIND       PRES   REMARKS
N.O. AUDUBON     N/A     82  76  82 MISG        N/A
N.O. INTL ARPT MOCLDY    81  74  79 E3        29.96F
N.O. LAKEFRONT MOCLDY    81  76  84 CALM      29.97F
N.O. DOWNTOWN*   N/A     82  72  69 SE3       29.97F
SLIDELL        MOCLDY    75  73  93 N3        29.97S
BATON ROUGE    MOCLDY    76  74  93 E3        29.97F
BOOTHVILLE     PTCLDY    81  77  88 E3        29.96F
BELLE CHASSE   PTCLDY    75  72  90 CALM      29.96F
BOGALUSA*      CLOUDY    76  73  88 CALM      30.00S
GALLIANO*      NOT AVBL
NEW ROADS*       N/A     75  74  98 CALM      29.97F
GONZALES*      PTSUNNY   76  76 100 CALM      29.96F
HAMMOND*       MOCLDY    75  72  88 CALM      29.99F
HOUMA*         MOCLDY    76  73  89 CALM      29.96S
PORT FOURCHON* MOSUNNY   84  73  70 E6        29.97S

$$

MSZ070-080>082-281000-
SOUTHERN MISSISSIPPI

CITY           SKY/WX    TMP DP  RH WIND       PRES   REMARKS
MCCOMB         PTCLDY    73  70  90 CALM      29.99F
GULFPORT       CLOUDY    78  73  84 CALM      29.97S
BILOXI         CLOUDY    78  74  88 NE6       29.97F
PASCAGOULA     MOCLDY    73  72  96 CALM      29.98S

$$

COASTAL OBSERVATIONS
LAKE AND NEARSHORE STATIONS

STATION/POSITION TIME  TEMP    WIND        PRES    WAVE
                       AIR SEA DIR/SP/G            HT/PER
                 (UTC) (F)     (DEG/KT/KT) (MB)    (FT/S)
PASCAGOULA       0900   79      CALM  /  1 1014.4
WAVELAND YACHT   0900   81      20/  4/  6 1014.3
GRAND ISLE       0900   83 83  120/  3/  6 1015.0
SOUTHWEST PASS   0900   84 88  110/ 10/ 12 1014.5
NEW CANAL        0900   80 84     CALM     1015.2
SHELL BEACH      0900   82 81  110/  3/  3 1014.5

OFFSHORE STATIONS

STATION/POSITION TIME  TEMP    WIND        PRES    WAVE
                       AIR SEA DIR/SP/G            HT/PER
                 (UTC) (F)     (DEG/KT/KT) (MB)    (FT/S)
64 S DAUPHIN ISL 0809   84 85  110/  8/ 10 1014.7

$$




USA.gov is the U.S. government's official web portal to all federal, state and local government web resources and services.